Time,TemperatureF,DewpointF,PressureIn,WindDirection,WindDirectionDegrees,WindSpeedMPH,WindSpeedGustMPH,Humidity,HourlyPrecipIn,Conditions,Clouds,dailyrainin,SolarRadiationWatts/m^2,SoftwareType,DateUTC
2013-10-06 00:22:00,38.0,28.0,-100.00,ESE,121,1.0,8.0,68,0.00,,,0.00,0.000000,,2013-10-06 06:22:00,
2013-10-06 00:32:00,38.0,28.0,-100.00,ESE,121,1.0,8.0,68,0.00,,,0.00,0.000000,,2013-10-06 06:32:00,
2013-10-06 00:42:00,38.0,28.0,-100.00,ESE,121,1.0,8.0,68,0.00,,,0.00,0.000000,,2013-10-06 06:42:00,
2013-10-06 00:52:00,38.0,28.0,-100.00,ESE,121,1.0,8.0,68,0.00,,,0.00,0.000000,,2013-10-06 06:52:00,
2013-10-06 01:22:00,34.0,24.0,-100.00,SE,131,0.0,4.0,67,0.00,,,0.00,0.000000,,2013-10-06 07:22:00,
2013-10-06 01:32:00,34.0,24.0,-100.00,SE,131,0.0,4.0,67,0.00,,,0.00,0.000000,,2013-10-06 07:32:00,
2013-10-06 01:42:00,34.0,24.0,-100.00,SE,131,0.0,4.0,67,0.00,,,0.00,0.000000,,2013-10-06 07:42:00,
2013-10-06 01:52:00,34.0,24.0,-100.00,SE,131,0.0,4.0,67,0.00,,,0.00,0.000000,,2013-10-06 07:52:00,
2013-10-06 02:22:00,33.0,24.0,-100.00,East,81,2.0,6.0,68,0.00,,,0.00,0.000000,,2013-10-06 08:22:00,
2013-10-06 02:32:00,33.0,24.0,-100.00,East,81,2.0,6.0,68,0.00,,,0.00,0.000000,,2013-10-06 08:32:00,
2013-10-06 02:42:00,33.0,24.0,-100.00,East,81,2.0,6.0,68,0.00,,,0.00,0.000000,,2013-10-06 08:42:00,
2013-10-06 02:52:00,33.0,24.0,-100.00,East,81,2.0,6.0,68,0.00,,,0.00,0.000000,,2013-10-06 08:52:00,
2013-10-06 03:22:00,34.0,26.0,-100.00,East,99,4.0,7.0,71,0.00,,,0.00,0.000000,,2013-10-06 09:22:00,
2013-10-06 03:33:00,34.0,26.0,-100.00,East,99,4.0,7.0,71,0.00,,,0.00,0.000000,,2013-10-06 09:33:00,
2013-10-06 03:43:00,34.0,26.0,-100.00,East,99,4.0,7.0,71,0.00,,,0.00,0.000000,,2013-10-06 09:43:00,
2013-10-06 03:53:00,34.0,26.0,-100.00,East,99,4.0,7.0,71,0.00,,,0.00,0.000000,,2013-10-06 09:53:00,
2013-10-06 04:23:00,33.0,26.0,-100.00,ESE,106,4.0,7.0,76,0.00,,,0.00,0.000000,,2013-10-06 10:23:00,
2013-10-06 04:32:00,33.0,26.0,-100.00,ESE,106,4.0,7.0,76,0.00,,,0.00,0.000000,,2013-10-06 10:32:00,
2013-10-06 04:42:00,33.0,26.0,-100.00,ESE,106,4.0,7.0,76,0.00,,,0.00,0.000000,,2013-10-06 10:42:00,
2013-10-06 04:53:00,33.0,26.0,-100.00,ESE,106,4.0,7.0,76,0.00,,,0.00,0.000000,,2013-10-06 10:53:00,
2013-10-06 05:21:00,32.0,24.0,-100.00,East,96,5.0,6.0,71,0.00,,,0.00,0.000000,,2013-10-06 11:21:00,
2013-10-06 05:33:00,32.0,24.0,-100.00,East,96,5.0,6.0,71,0.00,,,0.00,0.000000,,2013-10-06 11:33:00,
2013-10-06 05:42:00,32.0,24.0,-100.00,East,96,5.0,6.0,71,0.00,,,0.00,0.000000,,2013-10-06 11:42:00,
2013-10-06 05:52:00,32.0,24.0,-100.00,East,96,5.0,6.0,71,0.00,,,0.00,0.000000,,2013-10-06 11:52:00,
2013-10-06 06:22:00,32.0,26.0,-100.00,ESE,114,3.0,8.0,78,0.00,,,0.00,0.000000,,2013-10-06 12:22:00,
2013-10-06 06:32:00,32.0,26.0,-100.00,ESE,114,3.0,8.0,78,0.00,,,0.00,0.000000,,2013-10-06 12:32:00,
2013-10-06 06:42:00,32.0,26.0,-100.00,ESE,114,3.0,8.0,78,0.00,,,0.00,0.000000,,2013-10-06 12:42:00,
2013-10-06 06:52:00,32.0,26.0,-100.00,ESE,114,3.0,8.0,78,0.00,,,0.00,0.000000,,2013-10-06 12:52:00,
2013-10-06 07:21:00,31.0,23.0,-100.00,ESE,107,3.0,9.0,73,0.00,,,-99.99,0.000000,,2013-10-06 13:21:00,
2013-10-06 07:32:00,31.0,23.0,-100.00,ESE,107,3.0,9.0,73,0.00,,,-99.99,0.000000,,2013-10-06 13:32:00,
2013-10-06 07:42:00,31.0,23.0,-100.00,ESE,107,3.0,9.0,73,0.00,,,-99.99,0.000000,,2013-10-06 13:42:00,
2013-10-06 07:52:00,31.0,23.0,-100.00,ESE,107,3.0,9.0,73,0.00,,,-99.99,0.000000,,2013-10-06 13:52:00,
2013-10-06 08:22:00,31.0,20.0,-100.00,East,83,2.0,7.0,63,0.00,,,0.00,0.000000,,2013-10-06 14:22:00,
2013-10-06 08:32:00,31.0,20.0,-100.00,East,83,2.0,7.0,63,0.00,,,0.00,0.000000,,2013-10-06 14:32:00,
2013-10-06 08:42:00,31.0,20.0,-100.00,East,83,2.0,7.0,63,0.00,,,0.00,0.000000,,2013-10-06 14:42:00,
2013-10-06 08:52:00,31.0,20.0,-100.00,East,83,2.0,7.0,63,0.00,,,0.00,0.000000,,2013-10-06 14:52:00,
2013-10-06 09:22:00,34.0,17.0,-100.00,SSW,196,0.0,4.0,49,-99.99,,,0.00,43.000000,,2013-10-06 15:22:00,
2013-10-06 09:34:00,34.0,17.0,-100.00,SSW,196,0.0,4.0,49,-99.99,,,0.00,43.000000,,2013-10-06 15:34:00,
2013-10-06 09:43:00,34.0,17.0,-100.00,SSW,196,0.0,4.0,49,-99.99,,,0.00,43.000000,,2013-10-06 15:43:00,
2013-10-06 09:53:00,34.0,17.0,-100.00,SSW,196,0.0,4.0,49,-99.99,,,0.00,43.000000,,2013-10-06 15:53:00,
2013-10-06 10:23:00,43.0,19.0,-100.00,WSW,242,0.0,4.0,38,-99.99,,,0.00,260.000000,,2013-10-06 16:23:00,
2013-10-06 10:33:00,43.0,19.0,-100.00,WSW,242,0.0,4.0,38,-99.99,,,0.00,260.000000,,2013-10-06 16:33:00,
2013-10-06 10:42:00,43.0,19.0,-100.00,WSW,242,0.0,4.0,38,-99.99,,,0.00,260.000000,,2013-10-06 16:42:00,
2013-10-06 10:53:00,43.0,19.0,-100.00,WSW,242,0.0,4.0,38,-99.99,,,0.00,260.000000,,2013-10-06 16:53:00,
2013-10-06 11:22:00,50.0,26.0,-100.00,NW,305,3.0,4.0,39,0.00,,,0.00,192.000000,,2013-10-06 17:22:00,
2013-10-06 11:33:00,50.0,26.0,-100.00,NW,305,3.0,4.0,39,0.00,,,0.00,192.000000,,2013-10-06 17:33:00,
2013-10-06 11:42:00,50.0,26.0,-100.00,NW,305,3.0,4.0,39,0.00,,,0.00,192.000000,,2013-10-06 17:42:00,
2013-10-06 11:52:00,50.0,26.0,-100.00,NW,305,3.0,4.0,39,0.00,,,0.00,192.000000,,2013-10-06 17:52:00,
2013-10-06 12:21:00,50.0,21.0,-100.00,WNW,298,5.0,7.0,31,0.00,,,0.00,630.000000,,2013-10-06 18:21:00,
2013-10-06 12:32:00,50.0,21.0,-100.00,WNW,298,5.0,7.0,31,0.00,,,0.00,630.000000,,2013-10-06 18:32:00,
2013-10-06 12:42:00,50.0,21.0,-100.00,WNW,298,5.0,7.0,31,0.00,,,0.00,630.000000,,2013-10-06 18:42:00,
2013-10-06 13:22:00,55.0,23.0,-100.00,WSW,249,3.0,9.0,28,-99.99,,,0.00,888.000000,,2013-10-06 19:22:00,
2013-10-06 13:32:00,55.0,23.0,-100.00,WSW,249,3.0,9.0,28,-99.99,,,0.00,888.000000,,2013-10-06 19:32:00,
2013-10-06 13:42:00,55.0,23.0,-100.00,WSW,249,3.0,9.0,28,-99.99,,,0.00,888.000000,,2013-10-06 19:42:00,
2013-10-06 13:52:00,55.0,23.0,-100.00,WSW,249,3.0,9.0,28,-99.99,,,0.00,888.000000,,2013-10-06 19:52:00,
2013-10-06 14:22:00,62.0,26.0,-100.00,WNW,297,3.0,9.0,25,0.00,,,0.00,970.000000,,2013-10-06 20:22:00,
2013-10-06 14:32:00,62.0,26.0,-100.00,WNW,297,3.0,9.0,25,0.00,,,0.00,970.000000,,2013-10-06 20:32:00,
2013-10-06 14:42:00,62.0,26.0,-100.00,WNW,297,3.0,9.0,25,0.00,,,0.00,970.000000,,2013-10-06 20:42:00,
2013-10-06 14:52:00,62.0,26.0,-100.00,WNW,297,3.0,9.0,25,0.00,,,0.00,970.000000,,2013-10-06 20:52:00,
2013-10-06 15:22:00,64.0,26.0,-100.00,North,5,3.0,8.0,24,0.00,,,0.00,976.000000,,2013-10-06 21:22:00,
2013-10-06 15:34:00,64.0,26.0,-100.00,North,5,3.0,8.0,24,0.00,,,0.00,976.000000,,2013-10-06 21:34:00,
2013-10-06 15:44:00,64.0,26.0,-100.00,North,5,3.0,8.0,24,0.00,,,0.00,976.000000,,2013-10-06 21:44:00,
2013-10-06 15:54:00,64.0,26.0,-100.00,North,5,3.0,8.0,24,0.00,,,0.00,976.000000,,2013-10-06 21:54:00,
2013-10-06 16:24:00,68.0,28.0,-100.00,WNW,292,5.0,10.0,22,0.00,,,0.00,902.000000,,2013-10-06 22:24:00,
2013-10-06 16:33:00,68.0,28.0,-100.00,WNW,292,5.0,10.0,22,0.00,,,0.00,902.000000,,2013-10-06 22:33:00,
2013-10-06 16:42:00,68.0,28.0,-100.00,WNW,292,5.0,10.0,22,0.00,,,0.00,902.000000,,2013-10-06 22:42:00,
2013-10-06 16:53:00,68.0,28.0,-100.00,WNW,292,5.0,10.0,22,0.00,,,0.00,902.000000,,2013-10-06 22:53:00,
2013-10-06 17:22:00,70.0,29.0,-100.00,NW,312,6.0,11.0,22,0.00,,,0.00,757.000000,,2013-10-06 23:22:00,
2013-10-06 17:34:00,70.0,29.0,-100.00,NW,312,6.0,11.0,22,0.00,,,0.00,757.000000,,2013-10-06 23:34:00,
2013-10-06 17:42:00,70.0,29.0,-100.00,NW,312,6.0,11.0,22,0.00,,,0.00,757.000000,,2013-10-06 23:42:00,
2013-10-06 17:53:00,70.0,29.0,-100.00,NW,312,6.0,11.0,22,0.00,,,0.00,757.000000,,2013-10-06 23:53:00,
2013-10-06 18:22:00,70.0,34.0,-100.00,NW,315,8.0,11.0,26,0.00,,,0.00,551.000000,,2013-10-07 00:22:00,
2013-10-06 18:32:00,70.0,34.0,-100.00,NW,315,8.0,11.0,26,0.00,,,0.00,551.000000,,2013-10-07 00:32:00,
2013-10-06 18:42:00,70.0,34.0,-100.00,NW,315,8.0,11.0,26,0.00,,,0.00,551.000000,,2013-10-07 00:42:00,
2013-10-06 18:52:00,70.0,34.0,-100.00,NW,315,8.0,11.0,26,0.00,,,0.00,551.000000,,2013-10-07 00:52:00,
2013-10-06 19:22:00,66.0,40.0,-100.00,NNW,329,6.0,12.0,39,-99.99,,,0.00,304.000000,,2013-10-07 01:22:00,
2013-10-06 19:32:00,66.0,40.0,-100.00,NNW,329,6.0,12.0,39,-99.99,,,0.00,304.000000,,2013-10-07 01:32:00,
2013-10-06 19:42:00,66.0,40.0,-100.00,NNW,329,6.0,12.0,39,-99.99,,,0.00,304.000000,,2013-10-07 01:42:00,
2013-10-06 19:53:00,66.0,40.0,-100.00,NNW,329,6.0,12.0,39,-99.99,,,0.00,304.000000,,2013-10-07 01:53:00,
2013-10-06 20:22:00,58.0,39.0,-100.00,NW,309,4.0,12.0,49,-99.99,,,0.00,25.000000,,2013-10-07 02:22:00,
2013-10-06 20:32:00,58.0,39.0,-100.00,NW,309,4.0,12.0,49,-99.99,,,0.00,25.000000,,2013-10-07 02:32:00,
2013-10-06 20:42:00,58.0,39.0,-100.00,NW,309,4.0,12.0,49,-99.99,,,0.00,25.000000,,2013-10-07 02:42:00,
2013-10-06 21:22:00,54.0,36.0,-100.00,North,351,5.0,9.0,50,-99.99,,,0.00,0.000000,,2013-10-07 03:22:00,
2013-10-06 21:34:00,54.0,36.0,-100.00,North,351,5.0,9.0,50,-99.99,,,0.00,0.000000,,2013-10-07 03:34:00,
2013-10-06 21:44:00,54.0,36.0,-100.00,North,351,5.0,9.0,50,-99.99,,,0.00,0.000000,,2013-10-07 03:44:00,
2013-10-06 21:54:00,54.0,36.0,-100.00,North,351,5.0,9.0,50,-99.99,,,0.00,0.000000,,2013-10-07 03:54:00,
2013-10-06 22:24:00,51.0,36.0,-100.00,East,81,4.0,7.0,57,0.00,,,0.00,0.000000,,2013-10-07 04:24:00,
2013-10-06 22:34:00,51.0,36.0,-100.00,East,81,4.0,7.0,57,0.00,,,0.00,0.000000,,2013-10-07 04:34:00,
2013-10-06 22:44:00,51.0,36.0,-100.00,East,81,4.0,7.0,57,0.00,,,0.00,0.000000,,2013-10-07 04:44:00,
2013-10-06 22:53:00,51.0,36.0,-100.00,East,81,4.0,7.0,57,0.00,,,0.00,0.000000,,2013-10-07 04:53:00,
2013-10-06 23:22:00,48.0,35.0,-100.00,ESE,108,3.0,9.0,61,0.00,,,0.00,0.000000,,2013-10-07 05:22:00,
2013-10-06 23:34:00,48.0,35.0,-100.00,ESE,108,3.0,9.0,61,0.00,,,0.00,0.000000,,2013-10-07 05:34:00,
2013-10-06 23:43:00,48.0,35.0,-100.00,ESE,108,3.0,9.0,61,0.00,,,0.00,0.000000,,2013-10-07 05:43:00,
2013-10-06 23:52:00,48.0,35.0,-100.00,ESE,108,3.0,9.0,61,0.00,,,0.00,0.000000,,2013-10-07 05:52:00,